User: anonymous   Login
Location: Newark
(48.8604°N, 2.3376°E)
Time: 11:14:13
(UTC+00:00)
Language:

POLYITAN 1 - Orbit

View from above orbital plane
View from above orbital plane
View from above satellite
View from above satellite

Ground track
Ground track

The orbit data is extracted from the following two-line orbital elements,

1 40042U 14033AJ  21339.78945126  .00000953  00000-0  10591-3 0  9997
2 40042  97.9548 271.9845 0013950 331.9687  28.0778 14.89533830404818
Epoch (UTC): 05 December 2021 18:56:48
Eccentricity: 0.0013950
inclination: 97.9548°
perigee height: 589 km
apogee height: 609 km
right ascension of ascending node: 271.9845°
argument of perigee: 331.9687°
revolutions per day: 14.89533830
mean anomaly at epoch: 28.0778°
orbit number at epoch: 40481

The dashed part of the orbit path shows where the satellite is in the earth's shadow,  

DLR